Wetbulb
44.85 43.98 41.30 44.61 45.46 44.19 43.11 41.72 42.02 42.25 42.83 42.74 44.01 44.35 44.68 43.45 42.51 41.65 41.28 40.63 40.11 39.18 39.23 40.07 40.37 41.42 42.96 44.00 45.15 46.29 47.54 47.98 50.56 49.50 48.44 46.33 43.68 42.82 41.80 41.86 42.79 43.77 44.59 45.73
42.56 40.92 46.06 43.60 43.12 41.96 40.85 40.87 41.49 42.04 41.62 41.97 42.90 42.21 45.70 42.22 43.26 43.40 41.39 40.32 39.66 38.96 38.98 38.67 39.45 40.29 40.72 41.18 42.58 43.38 44.02 45.39 46.05 46.46 45.30 43.45 40.86 39.77 39.81 39.68 39.30 40.02 40.27 40.69
42.69 43.20 43.40 42.13 40.00 39.44 40.20 39.96 41.15 40.29 40.34 41.08 40.19 40.70 42.98 41.46 39.93 40.00 40.78 41.16 40.15 39.86 38.32 38.12 37.91 38.51 39.89 39.07 40.00 40.73 41.65 42.50 43.32 42.45 41.38 40.34 40.39 40.01 38.62 37.77 37.13 37.37 38.11 38.31
42.12 42.62 40.11 40.26 39.90 41.46 38.67 41.71 40.48 38.98 38.07 36.68 40.17 36.59 40.84 41.70 39.14 37.55 38.00 38.38 38.88 38.47 38.25 37.33 37.38 37.50 37.43 37.06 38.26 38.49 39.64 39.94 40.47 41.54 41.40 40.76 38.91 35.91 36.01 36.19 36.35 36.04 36.75 36.50
41.74 38.75 39.16 39.45 41.11 41.32 41.10 40.40 39.73 39.08 38.33 36.85 37.01 35.54 41.24 37.67 37.47 36.99 37.52 38.19 38.91 38.81 37.61 36.02 35.86 35.05 35.10 36.31 36.47 37.18 37.41 37.33 37.93 38.65 38.91 37.99 36.22 36.01 36.27 36.11 35.35 35.24 35.27 35.52
42.04 41.68 41.92 42.76 39.77 41.64 40.24 39.39 38.27 37.79 37.19 31.77 37.29 36.52 39.37 38.75 39.94 40.10 38.16 37.72 37.84 37.14 36.63 35.97 35.25 34.53 34.18 35.03 35.50 36.16 35.52 35.09 36.36 37.13 37.67 37.05 35.81 35.28 34.89 34.82 34.23 34.26 34.49 34.43
38.99 39.77 40.77 40.87 38.32 38.72 40.18 39.04 33.50 30.87 30.29 30.63 33.32 33.84 40.04 42.68 39.22 40.75 38.17 37.37 37.64 37.11 35.85 34.98 33.88 33.63 33.79 33.96 34.29 34.69 34.77 33.77 34.98 35.37 35.51 35.59 35.46 35.40 34.57 34.43 34.30 33.94 33.58 33.17
36.65 34.89 38.83 40.83 42.32 39.34 37.71 40.16 35.72 28.55 28.30 32.44 30.71 30.63 37.92 37.65 37.74 37.80 40.79 39.03 37.68 36.49 35.97 35.11 34.80 34.50 33.75 33.52 34.25 34.12 34.07 33.06 34.12 34.36 34.10 34.64 34.85 34.59 34.11 33.98 33.81 33.44 33.04 32.59
36.01 36.09 38.75 38.15 39.43 42.39 36.55 34.07 40.09 30.98 24.73 30.47 35.26 36.31 40.28 35.51 35.48 35.94 37.08 36.92 36.01 36.08 35.72 35.41 35.17 34.69 34.04 34.00 33.91 34.11 33.68 33.38 33.56 33.48 33.65 33.43 33.76 33.60 32.83 32.94 33.39 32.80 32.62 31.30
40.73 35.51 36.54 36.93 40.15 39.35 38.76 40.35 32.47 33.93 28.51 27.57 33.10 34.17 38.16 35.05 36.04 35.07 34.89 35.68 36.65 36.88 36.15 35.94 35.10 34.41 34.74 34.81 34.37 34.24 34.11 33.44 33.37 33.41 33.56 33.06 32.94 33.07 32.80 32.72 31.72 31.55 31.04 30.76
40.54 38.35 34.20 36.47 35.67 36.72 34.76 34.79 35.46 36.50 34.55 31.50 30.80 34.86 41.05 41.29 39.75 36.45 37.13 37.26 37.52 36.82 36.57 36.38 35.91 35.22 34.29 34.21 33.71 33.34 33.42 33.04 32.77 33.16 33.04 32.74 32.38 32.34 32.44 31.99 31.61 31.13 30.18 29.62
41.72 37.99 33.03 33.83 36.65 36.73 39.82 38.12 37.21 33.66 29.33 31.16 30.64 35.35 36.73 39.27 40.69 39.79 39.02 37.99 38.62 38.09 37.52 37.29 37.21 35.82 33.75 32.87 32.74 32.82 33.14 32.91 33.23 33.15 32.69 32.53 32.36 32.02 31.63 31.20 30.70 30.16 29.03 28.34
40.44 36.84 32.90 32.59 33.75 34.47 34.03 35.47 37.19 37.23 35.26 32.94 31.93 34.68 35.91 35.88 36.45 37.80 38.98 38.33 37.88 37.54 37.47 37.75 37.35 36.08 34.85 33.93 33.01 32.86 33.01 33.03 33.23 32.67 32.32 32.05 31.72 31.37 31.07 30.27 29.44 28.29 27.64 26.75
42.84 37.63 35.74 33.68 36.62 37.80 32.68 34.41 35.19 36.14 33.13 34.20 33.86 37.33 34.81 36.06 36.33 37.26 36.85 38.25 38.12 37.10 37.41 37.70 37.10 36.69 36.97 35.64 34.15 33.14 32.84 33.27 32.76 32.08 31.96 31.61 31.66 31.24 30.65 29.60 28.07 26.86 26.32 25.41
40.37 34.80 37.18 38.08 37.83 36.28 35.95 35.25 34.29 33.91 36.27 34.77 38.16 36.46 38.35 38.40 38.25 39.85 40.56 38.23 36.86 36.29 36.52 36.97 36.75 37.38 37.35 35.78 34.67 33.99 33.43 32.80 32.75 31.50 31.41 31.61 31.82 31.06 29.51 27.37 25.21 24.31 23.90 23.82
37.55 35.48 36.88 33.38 37.95 34.83 32.95 35.56 34.98 35.30 36.66 37.37 38.10 36.29 42.39 41.65 39.21 37.76 37.08 36.03 35.88 36.68 36.89 37.01 36.95 36.97 36.58 35.75 34.62 33.89 33.31 32.56 32.56 31.73 30.97 31.90 30.82 28.18 26.25 24.56 23.02 22.33 21.40 20.69
35.94 35.93 31.99 31.51 35.51 30.46 27.54 32.66 34.36 35.19 37.62 37.21 33.74 37.68 36.86 35.54 36.40 38.57 38.24 37.10 36.98 37.52 37.43 36.91 36.74 36.39 36.38 36.07 35.25 33.76 33.29 33.08 30.88 29.95 29.95 29.10 28.18 25.74 24.49 23.04 21.33 20.60 19.96 19.56
35.43 34.76 34.21 30.59 28.59 23.01 31.87 30.05 37.64 34.86 35.10 35.59 34.27 34.54 35.96 36.53 36.64 37.14 37.68 37.35 36.81 36.42 36.53 37.03 37.13 36.74 36.23 35.35 33.73 34.54 33.27 30.95 29.04 29.30 28.71 27.41 25.91 24.74 22.57 20.35 19.59 19.44 18.85 17.88
34.90 32.83 24.89 24.64 24.96 30.29 24.24 27.01 31.50 31.80 33.94 34.63 35.72 33.72 32.16 29.39 32.25 33.85 32.80 34.52 36.75 36.03 36.17 36.28 37.44 37.28 34.56 33.23 32.95 30.27 28.55 28.50 28.24 27.93 27.42 25.94 24.78 22.45 20.26 18.41 18.27 18.29 17.50 16.73
30.75 33.96 32.37 24.68 25.79 25.13 29.52 27.55 30.26 33.60 28.66 31.02 35.24 32.41 28.46 29.58 30.35 35.96 31.82 32.48 32.88 33.42 33.68 32.93 32.83 32.49 32.81 31.64 30.26 27.45 27.47 26.88 26.44 27.62 26.91 25.73 23.59 20.81 18.64 18.13 16.85 17.44 16.28 15.52
25.50 25.79 28.11 25.36 26.19 28.12 32.40 27.25 28.61 25.50 31.33 29.73 33.66 31.41 27.94 29.44 33.93 32.45 31.34 30.74 32.18 32.10 31.23 30.36 29.81 29.93 30.18 29.18 26.54 26.47 26.69 25.47 28.05 26.99 24.74 22.41 21.11 18.42 18.08 16.79 16.09 14.51 13.58 13.04
26.37 25.46 25.56 26.21 25.11 23.87 27.34 25.84 27.27 31.78 27.63 29.20 28.53 28.83 28.81 29.65 28.45 29.21 29.78 29.24 28.94 29.26 28.77 29.81 28.72 28.58 29.53 27.15 25.99 26.13 25.05 27.74 24.25 23.04 21.27 19.20 17.01 16.95 15.17 12.87 12.83 11.12 10.99 9.76
24.52 29.91 28.34 28.98 29.10 26.14 29.67 29.34 30.38 30.14 30.43 28.41 29.95 29.17 29.81 28.42 27.90 28.41 27.95 28.29 27.95 28.11 28.33 28.03 27.79 27.03 26.48 25.75 25.80 25.86 27.04 23.01 20.27 19.02 17.39 15.43 13.92 14.01 13.17 11.00 11.04 11.51 11.16 10.85
24.08 25.16 26.40 26.84 25.72 25.52 27.80 27.83 29.11 28.94 29.60 29.95 30.88 30.10 29.63 28.89 28.24 27.73 28.14 28.22 27.94 26.74 25.97 25.67 24.74 24.02 24.69 24.46 23.40 25.67 21.73 20.01 17.12 16.80 14.64 13.07 10.87 11.75 10.48 12.01 12.26 12.09 12.54 12.29
25.94 25.38 22.76 22.01 23.31 25.30 26.97 27.93 29.49 28.92 29.10 28.17 27.92 28.66 28.67 28.27 27.17 27.90 26.56 26.56 26.76 26.58 25.01 23.81 23.86 24.45 25.41 24.58 23.40 22.51 19.38 16.88 16.64 15.68 13.95 13.88 13.09 10.75 12.69 11.94 13.29 12.43 13.34 12.94
24.33 22.37 22.44 23.02 26.59 27.55 28.17 30.34 29.15 28.36 28.04 28.13 27.52 25.72 26.03 27.18 27.33 26.33 25.86 26.24 25.91 25.41 23.84 22.20 22.42 22.63 24.36 21.90 20.83 16.89 15.48 15.33 15.67 14.55 13.54 13.99 13.27 12.39 12.19 12.43 12.14 14.33 15.51 16.38
MSLP
1018.50 1018.10 1017.17 1016.74 1016.95 1017.15 1016.99 1016.99 1016.74 1017.16 1017.71 1017.79 1017.35 1017.32 1018.03 1019.55 1020.64 1021.53 1022.46 1023.28 1023.98 1024.78 1025.52 1025.83 1026.05 1026.00 1025.80 1025.58 1025.30 1025.32 1025.16 1025.17 1024.69 1024.82 1024.97 1025.63 1026.01 1026.77 1027.22 1027.43 1027.37 1027.20 1027.03 1026.85
1018.67 1017.47 1016.83 1017.46 1017.75 1017.73 1017.69 1017.44 1017.12 1017.62 1018.10 1018.19 1017.55 1017.32 1017.60 1019.23 1019.88 1020.84 1021.96 1022.92 1023.76 1024.73 1025.43 1025.90 1026.00 1025.98 1025.88 1025.72 1025.55 1025.51 1025.54 1025.60 1025.55 1025.66 1025.78 1026.35 1026.97 1027.74 1028.08 1028.40 1028.38 1028.18 1028.12 1028.05
1017.18 1017.13 1017.18 1017.64 1018.08 1018.17 1017.99 1017.72 1017.47 1017.89 1018.41 1018.49 1018.16 1016.96 1017.01 1018.71 1020.10 1021.29 1022.04 1022.68 1023.53 1023.98 1024.56 1025.20 1025.88 1026.20 1026.25 1026.26 1026.08 1025.77 1025.66 1025.46 1025.24 1025.75 1026.52 1027.13 1027.30 1027.78 1028.38 1028.76 1028.99 1029.16 1029.11 1029.04
1017.63 1017.55 1017.68 1017.87 1017.90 1018.00 1017.91 1017.93 1018.27 1018.53 1018.80 1018.20 1018.40 1016.22 1016.37 1017.60 1019.31 1020.93 1022.00 1022.76 1023.53 1024.52 1025.26 1025.88 1026.06 1026.28 1026.86 1027.03 1026.92 1026.82 1026.71 1026.79 1026.62 1026.60 1026.46 1026.32 1027.33 1028.21 1029.10 1029.33 1029.63 1029.72 1029.70 1029.74
1016.98 1017.54 1017.79 1017.65 1017.34 1018.10 1018.17 1018.48 1018.75 1018.96 1018.84 1018.90 1018.60 1018.30 1015.92 1017.59 1018.29 1019.78 1021.23 1022.42 1023.31 1024.23 1025.04 1025.80 1026.43 1026.63 1027.00 1027.14 1027.20 1027.11 1027.08 1027.28 1027.29 1027.21 1027.09 1027.23 1027.70 1028.53 1029.23 1029.82 1030.26 1030.43 1030.63 1030.73
1017.46 1017.88 1017.89 1017.56 1018.20 1018.37 1019.02 1019.22 1019.55 1019.74 1019.51 1018.44 1017.73 1017.93 1015.28 1016.31 1016.65 1018.29 1020.53 1021.70 1022.75 1023.88 1024.78 1025.63 1026.64 1027.14 1027.40 1027.70 1027.65 1027.42 1027.48 1027.65 1027.54 1027.84 1027.90 1027.99 1028.44 1029.05 1029.54 1029.80 1030.34 1030.77 1031.07 1031.17
1017.57 1017.48 1017.60 1017.83 1018.40 1019.11 1018.65 1018.81 1019.21 1019.49 1019.46 1017.71 1017.74 1017.70 1014.96 1015.66 1016.95 1017.89 1019.20 1021.00 1022.52 1023.82 1024.90 1025.60 1026.47 1027.01 1027.43 1027.62 1027.76 1027.83 1027.84 1028.12 1028.31 1028.31 1028.56 1028.63 1028.95 1029.23 1029.80 1029.99 1030.28 1030.60 1030.93 1031.28
1016.46 1016.79 1016.76 1016.89 1016.54 1017.14 1017.93 1017.52 1017.59 1017.86 1018.28 1017.56 1018.16 1016.48 1015.19 1016.26 1017.25 1018.50 1019.08 1020.54 1022.03 1023.15 1024.23 1024.95 1025.60 1026.31 1026.94 1027.40 1027.45 1027.77 1028.08 1028.32 1028.52 1029.03 1028.99 1029.44 1029.44 1029.76 1030.19 1030.30 1030.56 1030.96 1031.26 1031.94
1015.30 1015.84 1016.19 1016.47 1016.57 1016.77 1017.90 1017.72 1017.22 1017.94 1018.99 1017.99 1015.97 1015.37 1015.32 1016.41 1017.45 1018.61 1019.60 1020.71 1021.62 1022.60 1023.70 1024.52 1025.32 1026.06 1026.74 1027.20 1027.49 1027.78 1027.95 1028.58 1029.04 1029.00 1029.16 1029.60 1029.84 1029.96 1030.30 1030.78 1031.08 1031.29 1031.62 1032.26
1014.41 1015.29 1016.25 1016.88 1016.94 1017.10 1016.81 1016.59 1017.59 1017.59 1017.24 1016.18 1014.52 1014.35 1013.74 1015.34 1016.29 1017.95 1019.26 1019.96 1020.99 1022.26 1023.30 1024.10 1024.81 1025.58 1026.40 1027.06 1027.49 1027.63 1028.04 1028.26 1028.58 1028.96 1029.27 1029.75 1030.08 1030.50 1030.72 1031.03 1031.22 1031.54 1031.76 1032.24
1014.55 1015.15 1016.52 1016.92 1016.36 1015.58 1016.77 1016.36 1016.13 1015.80 1015.48 1014.71 1013.88 1012.55 1012.55 1013.28 1014.70 1016.20 1017.67 1018.86 1019.96 1021.15 1022.15 1023.02 1024.04 1025.14 1026.14 1026.78 1027.13 1027.51 1027.68 1028.40 1028.54 1028.72 1029.34 1029.56 1030.26 1030.75 1030.83 1031.17 1031.46 1031.35 1031.85 1032.21
1013.72 1014.36 1015.24 1015.39 1015.54 1015.82 1015.15 1014.72 1014.68 1014.31 1014.84 1014.76 1014.34 1012.22 1012.84 1013.65 1014.41 1015.69 1016.81 1018.12 1019.27 1020.30 1021.25 1022.32 1023.43 1024.57 1025.37 1026.16 1026.70 1027.12 1027.60 1028.01 1028.28 1028.59 1028.93 1029.37 1029.90 1030.47 1030.81 1031.20 1031.65 1031.83 1031.96 1032.29
1012.89 1013.81 1014.80 1015.01 1015.87 1015.78 1014.99 1014.55 1013.84 1013.60 1013.99 1012.72 1013.51 1011.84 1013.04 1013.87 1014.80 1015.59 1016.47 1017.67 1018.75 1019.74 1020.64 1021.51 1022.72 1023.61 1024.29 1025.16 1025.98 1026.36 1026.76 1027.36 1027.91 1028.31 1028.72 1029.51 1030.01 1030.44 1030.64 1031.15 1031.63 1031.98 1032.02 1032.15
1011.39 1012.51 1011.97 1010.92 1011.37 1012.22 1013.65 1013.36 1013.47 1013.17 1012.58 1011.31 1010.05 1011.43 1012.99 1013.63 1014.29 1015.06 1016.08 1017.04 1017.98 1018.96 1019.80 1020.82 1021.69 1022.39 1023.29 1024.39 1025.14 1025.71 1026.07 1026.89 1027.45 1027.97 1028.50 1029.01 1029.60 1030.14 1030.63 1031.14 1031.45 1031.84 1031.95 1031.91
1011.93 1011.68 1011.86 1011.17 1011.27 1011.68 1011.60 1011.63 1012.31 1011.74 1009.89 1010.57 1009.09 1010.42 1011.82 1012.84 1013.71 1014.06 1014.90 1016.32 1017.52 1018.26 1019.15 1019.83 1020.52 1021.40 1022.53 1023.48 1024.36 1025.04 1025.68 1026.36 1026.82 1027.40 1027.83 1028.45 1029.34 1029.90 1030.54 1031.15 1031.67 1031.90 1031.77 1031.93
1012.09 1011.47 1011.76 1011.10 1011.16 1011.62 1011.70 1011.27 1010.57 1010.43 1010.03 1009.83 1010.25 1010.31 1011.21 1012.20 1013.76 1014.32 1015.04 1016.18 1016.85 1017.36 1018.15 1019.07 1019.76 1020.95 1021.99 1022.74 1023.35 1024.07 1024.71 1025.38 1026.14 1026.70 1027.33 1028.13 1029.11 1029.88 1030.66 1031.15 1031.44 1031.81 1032.00 1032.15
1011.94 1012.16 1012.30 1011.00 1011.77 1012.60 1012.32 1008.71 1010.12 1009.82 1009.60 1009.93 1010.31 1010.28 1011.70 1013.08 1013.56 1013.98 1014.65 1015.68 1016.17 1016.85 1017.58 1018.52 1019.21 1020.38 1021.34 1021.81 1022.43 1023.16 1023.93 1024.74 1025.40 1026.18 1027.04 1027.76 1028.72 1029.65 1030.42 1031.04 1031.36 1031.34 1031.52 1032.01
1011.26 1012.02 1012.50 1011.88 1012.81 1011.85 1009.39 1009.82 1009.25 1009.67 1010.13 1010.37 1010.86 1011.54 1012.12 1013.12 1013.77 1014.28 1014.64 1015.43 1016.19 1017.03 1017.76 1018.46 1018.92 1019.77 1020.69 1021.43 1022.14 1022.69 1023.42 1024.13 1024.96 1025.88 1026.63 1027.61 1028.27 1029.20 1030.08 1030.76 1030.97 1031.16 1031.46 1031.84
1011.81 1012.17 1012.58 1012.64 1012.20 1010.89 1010.93 1010.72 1010.40 1010.20 1009.85 1010.72 1011.38 1012.39 1013.56 1014.17 1014.46 1014.75 1015.36 1015.72 1016.06 1016.79 1017.48 1018.16 1018.73 1019.57 1020.43 1021.21 1021.91 1022.62 1023.36 1024.11 1024.88 1025.41 1025.94 1026.78 1027.71 1028.55 1029.35 1030.09 1030.53 1030.93 1031.20 1031.61
1012.59 1012.21 1012.17 1012.56 1011.83 1010.99 1009.94 1010.30 1010.45 1010.33 1010.76 1010.94 1011.53 1013.22 1014.25 1014.63 1014.88 1014.46 1015.09 1015.85 1016.68 1017.32 1017.93 1018.50 1019.18 1019.90 1020.44 1021.05 1021.78 1022.41 1023.07 1023.94 1024.43 1024.73 1025.25 1026.19 1027.12 1028.04 1028.93 1029.70 1030.16 1030.63 1031.04 1031.25
1012.75 1012.48 1011.55 1011.61 1011.24 1010.76 1010.35 1010.88 1011.21 1011.58 1011.35 1011.35 1012.24 1013.30 1014.25 1014.47 1014.25 1014.66 1015.42 1016.43 1017.04 1017.58 1018.23 1018.96 1019.52 1019.89 1020.32 1021.00 1021.65 1022.39 1023.00 1023.53 1023.40 1024.49 1025.17 1026.08 1026.66 1027.45 1028.50 1029.32 1029.86 1030.36 1030.69 1030.92
1011.42 1011.54 1011.44 1011.75 1011.43 1010.87 1010.63 1011.66 1011.50 1011.19 1011.60 1011.93 1012.71 1013.28 1013.94 1014.36 1014.75 1015.19 1015.81 1016.58 1017.33 1017.93 1018.56 1019.00 1019.55 1019.86 1020.30 1020.95 1021.70 1022.33 1022.74 1022.46 1023.66 1024.47 1025.06 1025.95 1026.86 1027.43 1028.38 1029.03 1029.62 1030.03 1030.25 1030.38
1011.61 1010.52 1010.65 1010.96 1010.58 1010.59 1010.86 1011.13 1011.33 1011.57 1011.91 1012.62 1012.85 1013.40 1013.97 1014.61 1015.17 1015.73 1016.47 1017.13 1017.82 1018.28 1018.70 1019.17 1019.64 1019.97 1020.53 1021.04 1021.50 1021.95 1021.84 1022.89 1023.83 1024.59 1025.06 1025.89 1026.84 1027.61 1028.28 1028.91 1029.23 1029.43 1029.65 1029.55
1010.72 1010.50 1010.76 1011.04 1010.88 1011.06 1011.35 1011.54 1011.65 1011.88 1011.96 1012.41 1012.83 1013.40 1013.96 1014.40 1015.14 1015.92 1016.55 1017.10 1017.77 1018.34 1018.77 1019.28 1019.92 1020.28 1020.59 1020.88 1021.29 1021.60 1022.31 1023.07 1023.83 1024.42 1025.30 1026.24 1026.97 1027.63 1028.16 1028.38 1028.54 1028.62 1028.62 1028.66
1010.00 1010.19 1010.47 1010.85 1011.20 1011.56 1011.75 1011.89 1011.76 1012.08 1012.45 1012.85 1013.25 1013.66 1014.03 1014.64 1015.37 1015.98 1016.74 1017.21 1017.76 1018.34 1018.86 1019.44 1019.55 1019.79 1019.80 1020.53 1021.20 1021.88 1022.63 1023.36 1023.87 1024.45 1025.29 1026.10 1026.66 1027.18 1027.32 1027.58 1027.56 1027.63 1027.60 1027.72
1009.63 1009.78 1009.92 1009.77 1009.99 1010.30 1010.59 1010.56 1011.48 1011.99 1012.25 1012.79 1013.38 1014.09 1014.55 1014.84 1015.35 1016.01 1016.79 1017.23 1017.78 1018.27 1018.61 1019.12 1019.64 1019.94 1019.79 1020.52 1021.41 1022.13 1022.76 1023.21 1023.66 1024.50 1025.20 1025.63 1026.04 1026.37 1026.57 1026.75 1026.89 1026.96 1026.86 1026.90
Wind_Speed
2 8 13 18 16 3 1 4 9 2 1 4 11 13 11 8 7 8 7 6 6 6 5 7 7 7 7 8 9 9 10 8 7 7 8 8 10 9 11 11 14 14 13 13
6 14 14 2 8 7 5 8 14 5 3 5 8 13 14 11 9 10 11 10 10 9 7 7 7 8 8 9 10 10 10 10 8 6 7 7 8 9 9 10 13 14 15 14
12 3 7 9 8 10 11 14 12 9 2 5 5 15 19 7 6 6 9 10 11 13 13 10 7 7 7 8 8 9 10 11 12 13 10 10 10 9 9 9 9 12 14 14
9 3 7 11 10 12 14 12 9 7 5 9 2 8 5 8 9 10 12 13 13 12 9 7 8 9 8 8 7 9 9 10 9 9 9 13 9 9 8 8 9 10 12 13
5 9 9 10 10 11 5 5 9 6 10 6 8 8 6 4 11 14 16 15 15 13 12 10 8 8 7 6 8 9 11 11 10 11 11 10 13 10 8 7 10 11 11 12
4 2 5 4 3 6 13 7 5 3 2 9 15 14 7 8 8 13 17 18 18 16 14 11 8 7 7 6 7 8 10 10 10 10 11 13 13 11 8 8 7 6 6 7
4 9 4 4 6 3 7 11 4 5 6 7 1 11 11 6 5 7 21 20 18 16 14 13 12 10 9 8 8 8 10 11 10 11 11 11 12 12 11 9 7 7 6 6
11 8 16 13 18 10 17 14 7 8 7 2 2 9 7 1 5 4 11 19 19 18 16 15 15 13 12 11 10 10 10 11 11 10 11 10 10 7 7 8 7 6 6 5
9 7 3 4 4 14 9 11 2 5 2 3 7 5 7 4 6 6 11 17 20 19 18 17 15 13 13 13 12 12 12 11 10 11 10 9 9 9 8 8 7 6 6 4
6 6 2 2 2 1 5 11 5 4 6 8 6 7 9 9 14 11 13 18 19 19 18 17 15 15 13 12 11 12 11 12 12 11 9 8 8 8 8 7 7 6 6 5
5 5 4 6 12 17 8 8 5 3 5 5 5 6 6 12 15 18 17 18 20 21 20 18 16 14 13 12 12 12 12 12 11 11 10 10 8 8 7 6 6 6 5 4
11 2 7 12 1 2 11 10 13 7 7 5 3 6 3 2 8 13 14 16 18 19 20 18 17 15 14 14 13 13 13 12 12 11 11 10 9 8 8 7 6 5 5 4
14 6 5 4 4 2 10 10 13 6 2 13 8 5 3 3 5 8 10 13 16 18 19 18 17 17 16 15 14 15 14 14 13 12 12 11 10 10 9 8 7 6 5 4
18 8 17 18 5 11 12 15 15 17 12 15 22 10 7 8 9 10 10 12 16 17 18 18 16 18 16 15 16 15 15 14 13 13 13 12 12 11 9 8 7 6 5 4
11 16 19 21 9 7 8 18 22 26 31 17 18 20 14 15 15 14 13 12 15 17 18 18 17 16 16 16 15 14 14 14 14 14 14 14 11 10 9 7 6 5 4 3
2 13 17 20 20 14 13 17 25 27 27 26 15 15 8 14 5 8 11 13 16 17 17 17 16 15 16 16 16 15 15 15 14 14 14 13 10 9 9 8 7 5 4 3
13 14 8 17 14 4 8 27 21 17 21 19 21 14 7 7 12 13 13 15 16 15 16 15 14 14 13 14 13 15 15 13 12 12 10 9 10 10 9 8 7 6 5 4
12 18 8 5 6 12 6 3 16 17 12 12 2 5 7 5 5 4 5 11 11 10 11 11 9 10 10 9 11 11 11 11 11 11 9 9 10 10 9 8 7 6 5 6
2 6 4 5 7 6 1 5 10 14 14 11 13 5 5 5 3 3 5 6 9 10 8 7 8 8 8 10 9 8 8 8 9 11 11 11 11 10 10 9 8 6 5 6
2 4 8 5 6 10 1 2 2 4 6 8 12 9 9 8 6 7 10 7 7 7 6 7 7 5 7 7 8 8 8 8 10 11 11 11 11 10 9 9 8 5 5 6
5 2 13 7 6 5 5 6 3 7 4 4 7 9 12 8 3 4 9 6 4 4 5 4 6 8 7 7 7 8 7 10 10 7 8 9 10 9 9 8 6 6 6 6
9 9 5 4 5 10 7 5 8 3 3 5 6 9 11 6 7 8 8 6 6 5 4 6 5 7 7 7 8 7 9 7 6 8 8 9 9 8 7 7 7 6 6 6
5 4 4 7 3 2 10 3 2 3 5 5 7 6 9 8 8 9 7 7 5 5 5 4 7 6 5 7 8 8 8 7 7 7 8 8 8 7 7 7 7 5 6 5
5 4 4 4 5 3 10 2 3 4 5 6 4 7 9 9 9 8 6 6 5 4 5 4 5 6 8 7 7 9 4 6 7 8 8 7 8 8 7 6 6 6 6 6
2 10 6 1 1 2 4 6 8 6 3 5 4 5 8 7 7 7 6 5 5 5 4 5 7 8 11 6 8 6 6 8 8 7 7 8 7 8 7 8 7 7 7 7
6 7 5 4 8 4 10 16 11 10 10 8 8 4 3 7 8 7 6 7 6 6 3 4 6 6 7 3 4 4 6 8 8 8 7 7 6 6 6 6 6 12 14 14
Wind_Direction
120 205 214 212 217 258 174 221 253 187 153 246 239 257 195 177 188 188 181 163 135 102 78 63 49 52 69 59 61 50 62 57 85 87 88 72 69 63 56 51 46 45 43 44
165 228 228 135 194 211 226 245 252 271 204 241 248 253 254 197 220 209 181 170 154 138 113 86 79 79 80 83 84 83 79 73 71 79 88 88 90 75 73 65 55 51 51 45
211 152 182 171 164 200 226 231 239 262 148 212 275 262 246 202 200 188 186 168 163 157 146 137 117 96 89 77 78 93 99 104 105 109 107 103 101 90 76 63 62 53 53 54
236 157 151 183 210 200 235 220 238 236 241 261 232 281 228 203 202 199 182 180 167 159 146 137 130 104 83 76 82 81 84 88 89 100 100 107 103 97 81 82 80 71 60 59
194 177 184 203 212 186 260 142 206 220 237 268 207 263 232 194 222 201 189 181 174 166 161 157 147 127 115 106 98 97 97 93 95 103 108 107 107 109 110 97 88 78 66 57
281 48 209 210 94 186 137 105 89 96 206 250 225 219 200 209 219 178 183 185 179 173 171 160 149 147 124 111 108 109 104 99 104 102 100 106 116 121 119 114 102 89 78 68
187 217 179 168 127 90 188 164 190 221 210 250 136 215 257 236 179 187 186 182 178 174 174 169 171 169 155 149 133 124 122 112 106 105 112 119 121 118 119 117 108 108 92 70
200 226 189 188 214 183 193 193 199 214 204 215 129 227 238 346 124 131 186 176 176 178 181 182 180 176 171 166 159 147 136 130 131 136 127 123 121 117 107 105 108 96 87 76
192 245 192 207 139 169 176 214 164 113 97 255 205 233 245 183 192 173 165 175 183 183 185 187 183 182 179 179 172 161 154 149 151 141 131 129 129 125 117 110 103 100 96 81
200 241 220 141 141 186 205 144 168 216 213 230 205 241 223 201 207 182 185 192 187 187 190 191 188 188 188 184 174 168 167 164 157 148 141 137 127 122 123 124 118 121 120 128
153 235 135 140 209 188 171 193 210 214 221 231 257 229 219 198 191 188 196 194 189 190 192 191 191 191 188 184 180 179 176 173 165 158 153 144 145 147 139 139 150 143 136 137
197 186 195 207 127 313 236 223 191 200 186 250 317 247 159 155 181 185 188 191 193 194 193 193 192 188 186 189 187 187 186 184 179 169 164 165 162 162 164 166 156 154 153 145
169 205 217 217 213 179 219 202 218 210 44 208 196 212 158 142 211 198 186 187 194 194 194 194 192 195 194 194 194 193 192 191 184 177 176 177 178 182 179 172 171 177 170 154
160 181 210 224 203 154 202 205 207 206 227 223 233 240 196 206 208 197 204 197 194 196 195 195 195 200 199 200 199 199 195 193 186 185 187 188 190 190 184 181 180 183 184 168
192 223 218 238 231 205 207 193 197 209 223 216 240 227 200 194 201 197 204 186 190 197 196 197 199 199 202 202 204 202 200 193 190 192 193 198 194 190 184 180 182 185 186 164
190 230 214 242 241 234 235 217 204 211 223 236 247 239 177 195 157 184 192 184 201 203 198 200 198 198 204 205 205 202 202 198 192 197 203 200 190 178 185 183 186 189 190 189
182 206 180 236 215 188 259 226 205 209 217 221 223 236 140 172 196 204 196 196 204 203 200 196 193 199 205 206 204 205 203 193 189 192 194 180 176 182 188 188 191 199 205 212
190 203 212 228 129 219 280 8 217 211 195 211 233 152 155 160 171 172 166 193 193 189 187 191 190 197 202 196 200 204 195 184 183 195 188 184 180 187 185 189 200 202 207 225
118 162 153 188 208 329 107 200 170 178 231 196 218 153 135 97 89 185 176 190 196 187 189 188 185 184 179 189 187 171 163 171 185 198 199 189 185 185 185 195 199 205 215 226
141 216 203 154 208 224 277 172 175 129 251 198 180 136 152 145 193 226 174 166 170 167 171 180 170 168 178 172 158 156 174 179 203 202 200 186 182 181 183 194 195 202 217 234
158 183 215 198 222 273 199 168 164 147 238 124 166 150 154 186 212 114 145 159 161 173 178 155 168 183 189 154 150 181 169 205 211 180 167 174 180 174 182 183 190 196 214 236
179 168 188 174 217 249 142 97 179 155 31 136 150 166 173 145 148 143 152 152 172 191 183 188 180 205 185 161 168 187 200 213 157 166 170 173 166 171 175 181 187 204 215 232
211 204 183 202 203 52 170 52 130 69 139 177 159 159 153 150 169 161 168 170 181 193 205 191 207 212 184 179 188 190 222 157 156 164 171 165 163 174 173 187 202 215 218 239
228 166 202 163 173 197 182 52 120 178 168 156 159 151 164 167 162 164 157 163 179 190 212 186 187 215 219 205 197 225 134 149 159 176 172 164 173 183 188 201 209 218 226 233
140 146 143 39 109 127 200 230 197 187 140 135 130 158 178 147 169 171 178 188 204 216 194 190 205 220 229 178 206 195 172 161 177 173 173 183 191 195 199 217 218 223 231 231
185 150 172 192 183 150 195 208 192 187 192 176 161 169 188 174 187 171 199 203 203 214 189 209 223 226 236 182 207 174 167 171 165 179 183 191 195 198 210 221 234 237 242 241